| time (UTC) | temp F | wind direction | speed MPH | gust MPH | rain 1hr in | rain 24hr in | rain mn in | humidity % | barometer mb |
| 20260506115019 | 44 | 0.0 | 1.0 | 0.00 | 0.41 | 0.00 | 94 | 1010.0 | |
| 20260506114039 | 43 | 0.0 | 0.0 | 0.00 | 0.41 | 0.00 | 95 | 1009.8 | |
| 20260506113020 | 43 | 0.0 | 0.0 | 0.00 | 0.41 | 0.00 | 95 | 1009.3 | |
| 20260506112020 | 43 | 0.0 | 0.0 | 0.00 | 0.41 | 0.00 | 95 | 1009.3 | |
| 20260506111038 | 43 | 0.0 | 0.0 | 0.00 | 0.41 | 0.00 | 95 | 1008.9 | |
| 20260506110018 | 43 | 0.0 | 0.0 | 0.00 | 0.41 | 0.00 | 95 | 1009.1 | |
| 20260506105020 | 43 | 0.0 | 0.0 | 0.00 | 0.41 | 0.00 | 95 | 1009.2 | |
| 20260506104018 | 43 | 0.0 | 0.0 | 0.00 | 0.41 | 0.00 | 95 | 1009.4 | |
| 20260506103039 | 43 | 0.0 | 0.0 | 0.00 | 0.41 | 0.00 | 95 | 1009.1 | |
| 20260506102020 | 43 | 0.0 | 0.0 | 0.00 | 0.41 | 0.00 | 95 | 1008.8 | |
| 20260506101020 | 43 | 0.0 | 0.0 | 0.00 | 0.41 | 0.00 | 95 | 1008.5 | |
| 20260506100020 | 43 | 0.0 | 0.0 | 0.00 | 0.41 | 0.00 | 95 | 1008.4 | |
| 20260506095018 | 43 | 0.0 | 0.0 | 0.00 | 0.41 | 0.00 | 95 | 1008.1 | |
| 20260506094020 | 43 | 0.0 | 0.0 | 0.00 | 0.41 | 0.00 | 95 | 1008.2 | |
| 20260506093019 | 43 | 0.0 | 0.0 | 0.00 | 0.41 | 0.00 | 95 | 1008.3 | |
| 20260506092020 | 43 | 0.0 | 0.0 | 0.00 | 0.43 | 0.00 | 95 | 1008.4 | |
| 20260506091018 | 43 | 0.0 | 0.0 | 0.00 | 0.45 | 0.00 | 95 | 1008.6 | |
| 20260506090020 | 43 | 0.0 | 0.0 | 0.00 | 0.45 | 0.00 | 95 | 1008.8 | |
| 20260506085020 | 43 | 0.0 | 0.0 | 0.00 | 0.49 | 0.00 | 95 | 1007.6 | |
| 20260506084018 | 43 | 0.0 | 0.0 | 0.00 | 0.63 | 0.00 | 94 | 1008.1 | |
| 20260506083018 | 43 | 0.0 | 0.0 | 0.00 | 0.75 | 0.00 | 94 | 1008.3 | |
| 20260506082021 | 43 | 0.0 | 0.0 | 0.00 | 0.78 | 0.00 | 94 | 1008.5 | |
| 20260506081018 | 43 | 0.0 | 0.0 | 0.00 | 0.78 | 0.00 | 94 | 1008.5 | |
| 20260506073041 | 43 | 0.0 | 0.0 | 0.00 | 1.12 | 0.00 | 94 | 1007.9 | |
| 20260506072020 | 43 | 0.0 | 0.0 | 0.00 | 1.34 | 0.00 | 93 | 1008.0 | |
| 20260506071058 | 43 | 0.0 | 0.0 | 0.00 | 1.34 | 0.00 | 94 | 1007.9 | |
| 20260506062019 | 45 | 0.0 | 0.0 | 0.00 | 1.37 | 0.00 | 96 | 1008.8 | |
| 20260506061021 | 45 | 0.0 | 0.0 | 0.00 | 1.41 | 0.00 | 96 | 1008.6 | |
| 20260506051040 | 45 | 0.0 | 0.0 | 0.00 | 1.65 | 0.00 | 96 | 1008.7 | |
| 20260506045020 | 45 | 0.0 | 0.0 | 0.00 | 1.96 | 0.00 | 95 | 1008.8 | |
| 20260506044020 | 44 | 0.0 | 0.0 | 0.00 | 2.13 | 0.00 | 95 | 1008.5 | |
| 20260506043020 | 44 | 0.0 | 0.0 | 0.00 | 2.19 | 0.00 | 95 | 1008.2 | |
| 20260506042040 | 44 | 0.0 | 0.0 | 0.00 | 2.56 | 0.00 | 95 | 1008.2 | |
| 20260506041020 | 44 | 0.0 | 0.0 | 0.00 | 2.89 | 0.00 | 94 | 1008.3 | |
| 20260506040021 | 44 | 0.0 | 0.0 | 0.00 | 3.11 | 3.11 | 94 | 1008.5 | |
| 20260506035018 | 44 | 0.0 | 0.0 | 0.00 | 3.26 | 3.11 | 94 | 1008.6 | |
| 20260506034018 | 44 | 0.0 | 0.0 | 0.00 | 3.37 | 3.11 | 94 | 1008.7 | |
| 20260506033018 | 44 | 0.0 | 0.0 | 0.00 | 3.40 | 3.11 | 94 | 1008.6 | |
| 20260506032018 | 44 | 0.0 | 0.0 | 0.00 | 3.59 | 3.11 | 94 | 1008.5 | |
| 20260506031021 | 44 | 0.0 | 0.0 | 0.00 | 3.96 | 3.11 | 95 | 1008.5 | |
| 20260506030019 | 44 | 0.0 | 0.0 | 0.00 | 4.15 | 3.11 | 95 | 1008.5 | |
| 20260506025018 | 45 | 0.0 | 0.0 | 0.00 | 4.70 | 3.11 | 96 | 1008.6 | |
| 20260506024018 | 45 | 0.0 | 0.0 | 0.00 | 4.95 | 3.11 | 96 | 1008.6 | |
| 20260506023018 | 46 | 0.0 | 0.0 | 0.00 | 5.52 | 3.11 | 97 | 1008.7 | |
| 20260506022018 | 47 | 0.0 | 0.0 | 0.00 | 5.73 | 3.11 | 97 | 1008.9 | |
| 20260506021018 | 47 | 0.0 | 0.0 | 0.00 | 6.37 | 3.11 | 97 | 1008.9 | |
| 20260506020020 | 47 | 0.0 | 0.0 | 0.00 | 6.68 | 3.11 | 97 | 1008.6 | |
| 20260506015018 | 47 | 0.0 | 0.0 | 0.00 | 6.95 | 3.11 | 97 | 1008.7 | |
| 20260506014018 | 47 | 0.0 | 0.0 | 0.00 | 7.41 | 3.11 | 97 | 1008.9 | |
| 20260506013018 | 47 | 0.0 | 0.0 | 0.00 | 7.57 | 3.11 | 97 | 1008.7 | |
| 20260506012018 | 47 | 0.0 | 0.0 | 0.00 | 7.57 | 3.11 | 97 | 1008.1 | |
| 20260506011018 | 47 | 0.0 | 0.0 | 0.00 | 7.57 | 3.11 | 97 | 1008.0 | |
| 20260506005018 | 47 | 0.0 | 0.0 | 0.00 | 7.58 | 3.11 | 97 | 1007.8 | |
| 20260506004018 | 47 | 0.0 | 0.0 | 0.00 | 7.59 | 3.11 | 97 | 1007.8 | |
| 20260506003019 | 47 | 0.0 | 0.0 | 0.00 | 7.65 | 3.11 | 97 | 1007.7 | |
| 20260506002020 | 47 | 0.0 | 0.0 | 0.00 | 7.67 | 3.11 | 97 | 1007.7 |